Location: Neuvy Saint Sepulchre
(46.5953°N, 1.8122°E)
Time: 21:00:23
(UTC+02:00)

ISS - Pass Details

Date: 21 March 2019
Orbit: 408 x 410 km, 51.6° (Epoch: 22 April)

Event Time Altitude Azimuth Distance (km) Brightness Sun altitude
Rises 20:20:15 0° 207° (SSW) 2,323 0.2 -13.4°
Reaches altitude 10° 20:22:36 10° 192° (SSW) 1,466 -1.0 -13.8°
Enters shadow 20:24:59 22° 146° (SE) 947 -2.4 -14.2°
